Dewpoint
65 65 66 66 66 66 66 66 66 65 65 65 65 65 65 65 66 66 63 62 62 61 61 60 60 60 60 59 59 57 56 57 57 57 57 57 56 55 54 53 53 53
65 66 67 67 67 66 67 66 66 65 65 65 65 65 65 65 65 63 62 61 60 60 59 60 59 58 57 57 58 57 56 55 54 54 55 55 55 54 54 54 53 51
66 67 67 66 66 66 66 67 67 66 65 64 64 64 64 64 64 63 62 60 60 60 60 60 58 57 57 57 57 57 56 56 55 55 54 53 54 52 53 53 52 51
66 66 66 66 66 65 66 65 65 65 64 63 63 63 63 64 63 62 61 60 59 59 59 59 58 56 55 56 56 56 55 55 55 55 54 54 54 52 52 52 51 50
66 66 66 66 66 66 66 65 64 64 63 63 63 63 63 63 62 61 60 60 59 58 59 57 56 56 55 55 55 55 54 55 55 54 52 52 53 52 51 51 50 49
65 65 65 65 65 66 65 64 64 63 63 62 62 62 62 63 62 62 62 60 58 58 56 55 55 55 55 54 55 55 55 54 53 51 49 49 50 51 50 50 49 48
65 65 65 65 65 65 65 64 63 63 62 62 62 61 62 62 61 61 61 59 58 56 54 54 54 55 56 55 54 53 53 52 51 49 47 48 48 47 46 47 47 46
65 65 64 64 65 64 63 63 63 63 62 61 61 62 62 61 59 59 58 57 55 54 54 52 53 53 54 53 51 51 52 52 50 47 47 48 49 46 48 49 48 45
65 64 64 64 64 63 62 62 62 62 62 61 61 61 62 62 58 58 57 55 54 54 52 52 52 52 54 52 51 50 49 50 50 49 48 47 46 46 46 48 48 48
64 64 64 64 63 62 61 61 61 61 61 61 61 62 62 61 59 57 56 54 54 53 52 52 52 52 51 49 49 49 47 47 47 48 47 46 46 45 46 46 46 46
65 64 64 63 62 62 61 61 60 61 61 60 61 61 61 61 60 59 56 54 54 52 51 51 51 50 49 49 50 49 47 47 46 46 47 47 48 47 48 46 46 46
64 64 63 62 62 61 61 60 60 60 60 61 61 60 60 61 58 57 54 52 52 51 50 50 49 49 47 47 46 47 48 48 48 47 46 45 46 45 45 47 45 44
63 63 62 61 61 61 60 60 59 60 60 60 60 59 59 58 57 55 55 52 51 51 50 50 48 47 48 47 46 46 47 47 47 46 47 46 45 44 45 42 39 40
62 62 61 61 60 60 59 59 59 59 59 59 58 58 58 57 55 54 54 52 51 50 50 50 48 47 46 46 46 47 47 46 46 47 46 46 45 42 40 38 38 38
61 60 60 60 59 58 58 58 58 58 58 58 58 57 57 56 54 53 52 51 50 49 48 49 49 48 48 47 47 47 48 46 46 45 45 44 42 40 38 37 37 39
60 59 59 59 58 58 58 58 58 58 57 56 56 56 56 55 53 52 51 50 49 48 48 50 50 51 49 46 47 47 46 47 47 46 45 43 42 38 36 36 38 40
59 58 58 58 58 57 57 57 57 57 56 56 56 56 57 54 53 50 50 50 48 47 47 49 47 47 41 40 41 43 47 47 46 45 44 43 40 37 36 38 38 39
58 58 57 57 57 56 56 56 56 56 55 55 55 55 56 54 52 50 50 50 48 47 48 45 44 41 38 39 40 41 44 47 46 45 44 42 39 38 39 40 41 42
58 57 56 56 56 56 56 56 56 55 54 54 54 55 52 52 51 50 49 49 48 47 44 44 43 39 37 38 37 38 40 44 44 44 42 40 39 39 40 42 44 46
57 56 56 56 56 56 56 55 55 54 54 54 53 52 51 51 50 50 49 48 48 46 44 44 42 39 37 37 37 36 36 39 43 45 44 43 43 44 45 44 44 43
56 55 55 55 55 55 55 54 54 53 53 52 51 51 50 49 49 49 49 49 48 45 43 43 45 37 36 36 36 36 36 39 45 45 44 45 44 44 44 44 44 44
55 54 54 54 54 54 54 53 52 52 51 51 51 50 50 50 49 49 48 47 46 45 43 42 42 36 36 36 36 35 38 45 46 45 44 43 44 45 44 43 42 42
55 54 54 54 54 53 52 52 51 51 51 50 50 50 49 48 47 47 46 44 44 45 45 41 40 37 36 36 36 36 40 43 44 42 43 43 43 43 43 43 44 40
54 53 53 53 53 52 52 51 51 51 50 50 49 49 48 47 46 45 44 43 42 43 41 39 39 40 36 36 36 36 40 46 42 41 42 41 42 43 41 40 42 46
53 53 53 53 52 52 52 51 51 51 51 51 50 48 47 46 45 43 43 42 41 41 44 40 39 38 36 35 36 37 40 44 39 39 41 41 42 42 40 38 35 38
53 52 52 52 51 52 52 51 51 50 50 50 49 47 46 45 44 42 42 41 40 40 41 40 39 39 39 35 36 36 37 39 46 39 39 40 39 38 38 38 35 34